Weather History for Lewisburg, WV

Change the Weather History Date:

Tuesday, June 25, 2013

  Actual Average Record
Temperature  
Mean Temperature 70 °F -  
Max Temperature 80 °F 81 °F 90 °F (1966)
Min Temperature 59 °F 57 °F 43 °F (1961)
Cooling Degree Days 4    
Growing Degree Days 20 (Base 50)    
Moisture  
Dew Point 61 °F    
Average Humidity 77    
Maximum Humidity 100    
Minimum Humidity 54    
Precipitation  
Precipitation 0.00 in - - ()
Sea Level Pressure  
Sea Level Pressure 30.17 in    
Wind  
Wind Speed 2 mph (WSW)    
Max Wind Speed 10 mph    
Max Gust Speed -    
Visibility 6 miles    
Events Fog , Thunderstorm    
Averages and records for this station are not official NWS values.
T = Trace of Precipitation, MM = Missing Value Source: NWS Daily Summary

Daily Weather History Graph

Daily Weather History Graph

Search for Another Location

Airport:

Trip Planner

Search our weather history database for the weather conditions in past years. The results will help you decide how hot, cold, wet, or windy it might be!

Date:

Astronomy

Jun. 25, 2013 Rise Set
Actual Time 6:00 AM EDT 8:47 PM EDT
Civil Twilight 5:29 AM EDT 9:19 PM EDT
Nautical Twilight 4:50 AM EDT 9:58 PM EDT
Astronomical Twilight 4:05 AM EDT 10:42 PM EDT
Moon 10:35 PM EDT (6/25) 8:36 AM EDT (6/25)
Length of Visible Light 15h 49m
Length of Day
14h 46m
Waning Gibbous, 93% of the Moon is Illuminated
Jun 25
Waning Gibbous
Jun 30
Last Quarter
Jul 8
New
Jul 15
First Quarter
Jul 22
Full

Hourly Weather History & Observations

Time (EDT) Temp. Heat Index Dew Point Humidity Pressure Visibility Wind Dir Wind Speed Gust Speed Precip Events Conditions
12:15 AM 60.8 °F - 59.0 °F 94% 30.22 in 0.2 mi Calm Calm - N/A Fog Fog
12:35 AM 60.8 °F - 59.0 °F 94% 30.23 in 0.2 mi Calm Calm - N/A Fog Fog
12:55 AM 60.8 °F - 59.0 °F 94% 30.22 in 1.0 mi Calm Calm - N/A   Overcast
1:15 AM 60.8 °F - 59.0 °F 94% 30.22 in 0.5 mi Calm Calm - N/A Fog Fog
1:35 AM 59.0 °F - 57.2 °F 94% 30.21 in 0.2 mi NNE 4.6 mph - N/A Fog Fog
1:55 AM 60.8 °F - 59.0 °F 94% 30.20 in 0.2 mi Calm Calm - N/A Fog Fog
2:15 AM 60.8 °F - 59.0 °F 94% 30.20 in 0.2 mi Calm Calm - N/A Fog Fog
2:35 AM 60.8 °F - 59.0 °F 94% 30.19 in 0.2 mi Calm Calm - N/A Fog Fog
2:55 AM 60.8 °F - 59.0 °F 94% 30.19 in 0.2 mi Calm Calm - N/A Fog Fog
3:15 AM 60.8 °F - 59.0 °F 94% 30.19 in 0.2 mi Calm Calm - N/A Fog Fog
3:35 AM 59.0 °F - 59.0 °F 100% 30.19 in 0.2 mi Calm Calm - N/A Fog Fog
3:55 AM 59.0 °F - 57.2 °F 94% 30.20 in 0.2 mi Calm Calm - N/A Fog Fog
4:15 AM 59.0 °F - 57.2 °F 94% 30.19 in 0.2 mi Calm Calm - N/A Fog Fog
4:35 AM 59.0 °F - 57.2 °F 94% 30.18 in 0.2 mi Calm Calm - N/A Fog Fog
4:55 AM 59.0 °F - 57.2 °F 94% 30.17 in 0.2 mi Calm Calm - N/A Fog Fog
5:15 AM 59.0 °F - 57.2 °F 94% 30.18 in 0.5 mi NW 3.5 mph - N/A Fog Fog
5:35 AM 59.0 °F - 57.2 °F 94% 30.17 in 0.5 mi Calm Calm - N/A Fog Fog
5:55 AM 59.0 °F - 57.2 °F 94% 30.17 in 0.2 mi North 4.6 mph - N/A Fog Fog
6:15 AM 59.0 °F - 57.2 °F 94% 30.18 in 0.2 mi Calm Calm - N/A Fog Fog
6:35 AM 59.0 °F - 57.2 °F 94% 30.18 in 0.2 mi Calm Calm - N/A Fog Fog
6:55 AM 59.0 °F - 57.2 °F 94% 30.19 in 0.2 mi Calm Calm - N/A Fog Fog
7:15 AM 59.0 °F - 57.2 °F 94% 30.19 in 0.2 mi Calm Calm - N/A Fog Fog
7:35 AM 60.8 °F - 59.0 °F 94% 30.19 in 0.2 mi Calm Calm - N/A Fog Fog
7:55 AM 60.8 °F - 59.0 °F 94% 30.20 in 0.2 mi Calm Calm - N/A Fog Fog
8:15 AM 60.8 °F - 60.8 °F 100% 30.21 in 0.2 mi Calm Calm - N/A Fog Fog
8:35 AM 62.6 °F - 60.8 °F 94% 30.21 in 1.2 mi Calm Calm - N/A   Overcast
8:55 AM 62.6 °F - 60.8 °F 94% 30.21 in 3.0 mi WSW 3.5 mph - N/A   Overcast
9:15 AM 62.6 °F - 62.6 °F 100% 30.22 in 3.0 mi Calm Calm - N/A   Overcast
9:35 AM 64.4 °F - 62.6 °F 94% 30.22 in 10.0 mi SSW 3.5 mph - N/A   Mostly Cloudy
9:55 AM 68.0 °F - 62.6 °F 83% 30.22 in 10.0 mi SW 5.8 mph - N/A   Scattered Clouds
10:15 AM 68.0 °F - 62.6 °F 83% 30.22 in 10.0 mi Calm Calm - N/A   Scattered Clouds
10:35 AM 69.8 °F - 62.6 °F 78% 30.22 in 10.0 mi WSW 3.5 mph - N/A   Clear
10:55 AM 71.6 °F - 62.6 °F 73% 30.22 in 10.0 mi WSW 6.9 mph - N/A   Clear
11:15 AM 71.6 °F - 62.6 °F 73% 30.22 in 10.0 mi Calm Calm - N/A   Clear
11:35 AM 73.4 °F - 62.6 °F 69% 30.22 in 10.0 mi West 5.8 mph - N/A   Clear
11:55 AM 75.2 °F - 60.8 °F 61% 30.21 in 10.0 mi West 4.6 mph - N/A   Scattered Clouds
12:15 PM 75.2 °F - 60.8 °F 61% 30.20 in 10.0 mi WSW 3.5 mph - N/A   Mostly Cloudy
12:35 PM 77.0 °F - 59.0 °F 54% 30.19 in 10.0 mi West 5.8 mph - N/A   Scattered Clouds
12:55 PM 77.0 °F - 59.0 °F 54% 30.19 in 10.0 mi West 5.8 mph - N/A   Scattered Clouds
1:15 PM 77.0 °F - 59.0 °F 54% 30.19 in 10.0 mi NW 4.6 mph - N/A   Clear
1:35 PM 77.0 °F - 59.0 °F 54% 30.18 in 10.0 mi West 3.5 mph - N/A   Scattered Clouds
1:55 PM 77.0 °F - 60.8 °F 57% 30.17 in 10.0 mi Calm Calm - N/A   Mostly Cloudy
2:15 PM 78.8 °F - 60.8 °F 54% 30.17 in 10.0 mi WSW 5.8 mph - N/A   Mostly Cloudy
2:35 PM 78.8 °F - 60.8 °F 54% 30.16 in 10.0 mi WSW 6.9 mph - N/A   Scattered Clouds
2:55 PM 78.8 °F - 60.8 °F 54% 30.17 in 10.0 mi West 4.6 mph - N/A   Mostly Cloudy
3:15 PM 78.8 °F - 60.8 °F 54% 30.16 in 10.0 mi WNW 3.5 mph - N/A   Mostly Cloudy
3:35 PM 78.8 °F - 60.8 °F 54% 30.15 in 10.0 mi WSW 3.5 mph - N/A Thunderstorm Scattered Clouds
3:55 PM 80.6 °F 81.8 °F 62.6 °F 54% 30.14 in 10.0 mi Calm Calm - N/A   Scattered Clouds
4:15 PM 78.8 °F - 60.8 °F 54% 30.14 in 10.0 mi WNW 4.6 mph - N/A   Mostly Cloudy
4:35 PM 78.8 °F - 60.8 °F 54% 30.13 in 10.0 mi West 3.5 mph - N/A   Scattered Clouds
4:55 PM 78.8 °F - 60.8 °F 54% 30.13 in 10.0 mi WSW 3.5 mph - N/A   Scattered Clouds
5:15 PM 78.8 °F - 62.6 °F 57% 30.12 in 10.0 mi SW 5.8 mph - N/A   Clear
5:35 PM 78.8 °F - 60.8 °F 54% 30.11 in 10.0 mi SW 5.8 mph - N/A   Clear
5:55 PM 78.8 °F - 60.8 °F 54% 30.10 in 10.0 mi SW 4.6 mph - N/A   Clear
6:15 PM 78.8 °F - 62.6 °F 57% 30.09 in 10.0 mi SSW 6.9 mph - N/A   Clear
6:35 PM 78.8 °F - 62.6 °F 57% 30.09 in 10.0 mi SSW 9.2 mph - N/A   Clear
6:55 PM 77.0 °F - 62.6 °F 61% 30.09 in 10.0 mi SSW 10.4 mph - N/A   Clear
7:15 PM 73.4 °F - 62.6 °F 69% 30.09 in 10.0 mi SSW 8.1 mph - N/A   Clear
7:35 PM 73.4 °F - 62.6 °F 69% 30.10 in 10.0 mi SW 3.5 mph - N/A   Clear
7:55 PM 75.2 °F - 62.6 °F 65% 30.10 in 10.0 mi WSW 3.5 mph - N/A   Clear
8:15 PM 73.4 °F - 62.6 °F 69% 30.10 in 10.0 mi SW 3.5 mph - N/A   Clear
8:35 PM 71.6 °F - 62.6 °F 73% 30.11 in 10.0 mi Calm Calm - N/A   Clear
8:55 PM 71.6 °F - 62.6 °F 73% 30.12 in 10.0 mi Calm Calm - N/A   Clear
9:15 PM 71.6 °F - 62.6 °F 73% 30.12 in 10.0 mi Calm Calm - N/A   Clear
9:35 PM 69.8 °F - 62.6 °F 78% 30.12 in 10.0 mi Calm Calm - N/A   Clear
9:55 PM 69.8 °F - 62.6 °F 78% 30.12 in 10.0 mi South 3.5 mph - N/A   Clear
10:15 PM 68.0 °F - 62.6 °F 83% 30.12 in 10.0 mi Calm Calm - N/A   Clear
10:35 PM 68.0 °F - 62.6 °F 83% 30.12 in 10.0 mi Calm Calm - N/A   Clear
10:55 PM 68.0 °F - 64.4 °F 88% 30.12 in 10.0 mi Calm Calm - N/A   Clear
11:15 PM 68.0 °F - 62.6 °F 83% 30.11 in 10.0 mi Calm Calm - N/A   Clear
11:35 PM 68.0 °F - 62.6 °F 83% 30.11 in 10.0 mi Calm Calm - N/A   Clear
11:55 PM 68.0 °F - 62.6 °F 83% 30.11 in 7.0 mi Calm Calm - N/A   Clear